Location: B
(0.0000°N, 0.0000°E)
Time: 14:56:44
(UTC+02:00)

Amateur Radio Satellites - All Passes

Search period start: 06 May 2016 14:26
Search period end: 07 May 2016 14:26
Location: B, 0.0000°N, 0.0000°E

Satellite Date Start Highest point End Downlink Frequencies (MHz)
Time Altitude Azimuth
Cosmos 2499 06 May 14:27:33 14:35:46 57° 267° (W) 14:44:25 435.465 / 435.565
PCSat 06 May 14:30:15 14:35:22 44° 109° (ESE) 14:40:29 145.827
JUGNU 06 May 14:37:21 14:42:54 44° 340° (NNW) 14:48:27 437.505
Gurwin Techsat 1B 06 May 14:44:46 14:47:24 14° 77° (ENE) 14:50:01 435.225
JAS-2 06 May 14:50:32 14:55:56 85° 260° (W) 15:01:54 435.910
BEESAT 06 May 15:00:06 15:02:49 15° 103° (ESE) 15:05:32 436.000
O/OREOS (USA 219) 06 May 15:00:35 15:04:44 33° 284° (WNW) 15:08:51 437.305
GONETS M04 06 May 15:09:49 15:12:58 12° 267° (W) 15:16:09
SRMSAT 06 May 15:43:09 15:49:05 82° 337° (NNW) 15:55:04 437.500
ITAMSAT 1 06 May 15:45:17 15:49:28 25° 77° (ENE) 15:53:37 435.822/435.867
TISAT 1 06 May 15:50:25 15:51:21 11° 282° (WNW) 15:52:18 437.305
ISS 06 May 15:54:21 15:56:31 17° 54° (NE) 15:58:41 145.825
ITUPSAT 1 06 May 15:55:32 16:00:19 84° 103° (ESE) 16:05:08 437.325
Oscar 19 06 May 15:57:34 16:01:33 23° 257° (WSW) 16:05:33 437.125/150
SWISSCUBE 06 May 16:02:53 16:07:37 66° 282° (WNW) 16:12:23 437.505
DANDE 06 May 16:11:36 16:14:08 54° 95° (E) 16:16:43 436.750
PCSat 06 May 16:16:40 16:18:30 12° 290° (WNW) 16:20:21 145.827
Gurwin Techsat 1B 06 May 16:22:12 16:27:04 37° 257° (WSW) 16:31:55 435.225
JUGNU 06 May 16:28:17 16:32:15 18° 345° (NNW) 16:36:13 437.505
MOZHAYETS 4 06 May 16:35:34 16:36:31 11° 103° (ESE) 16:37:27
BEESAT 06 May 16:36:18 16:40:19 27° 282° (WNW) 16:44:21 436.000
BEESAT 3 06 May 16:45:48 16:48:57 23° 112° (ESE) 16:52:05 437.485
AO-7 06 May 16:55:40 17:03:37 50° 74° (ENE) 17:11:29 29.400- 29.500
BEESAT 2 06 May 17:01:00 17:03:50 19° 112° (ESE) 17:06:39 435.950
PHONESAT 2.4 06 May 17:12:06 17:14:20 18° 42° (NE) 17:16:36 2401.200-2431.200
SO-50 06 May 17:20:02 17:23:21 20° 67° (ENE) 17:26:37 436.795
ITAMSAT 1 06 May 17:24:55 17:28:40 20° 257° (WSW) 17:32:24 435.822/435.867
ISS 06 May 17:30:55 17:32:46 14° 234° (SW) 17:34:38 145.825
SRMSAT 06 May 17:33:14 17:38:24 30° 341° (NNW) 17:43:36 437.500
KKS-1 06 May 17:37:23 17:41:41 52° 282° (WNW) 17:46:00 437.445
HORYU 2 06 May 17:41:44 17:45:15 23° 78° (ENE) 17:48:44 437.375
STARS 06 May 17:43:16 17:47:37 78° 103° (ESE) 17:51:58 437.465
YUBILEINY 06 May 18:05:17 18:08:38 13° 93° (E) 18:11:58 435.215
MOZHAYETS 4 06 May 18:09:13 18:13:23 35° 282° (WNW) 18:17:36
Cosmos 2491 06 May 18:19:49 18:26:06 22° 87° (E) 18:32:22 435.465 / 435.565
JUGNU 06 May 18:21:17 18:22:09 10° 354° (N) 18:23:02 437.505
BEESAT 3 06 May 18:25:08 18:26:24 11° 292° (WNW) 18:27:40 437.485
CUBESAT XI-V 06 May 18:28:37 18:32:23 24° 102° (ESE) 18:36:09 437.345
BEESAT 2 06 May 18:39:12 18:41:25 15° 292° (WNW) 18:43:39 435.950
PHONESAT 2.4 06 May 18:48:40 18:51:04 20° 222° (SW) 18:53:27 2401.200-2431.200
AO-7 06 May 18:50:07 18:55:59 22° 253° (WSW) 19:01:52 29.400- 29.500
SO-50 06 May 19:00:36 19:03:32 17° 248° (WSW) 19:06:28 436.795
AIST 2 06 May 19:04:27 19:08:08 31° 112° (ESE) 19:11:47 435.215
HORYU 2 06 May 19:18:47 19:21:32 16° 257° (WSW) 19:24:17 437.375
CUTE-I 06 May 19:21:31 19:26:08 30° 77° (ENE) 19:30:43 437.470
SRMSAT 06 May 19:25:03 19:28:10 14° 348° (NNW) 19:31:19 437.500
BRITE-PL 06 May 19:31:41 19:35:44 34° 77° (ENE) 19:40:03 437.365/2234.400
STRAND 1 06 May 19:47:46 19:49:28 12° 103° (ESE) 19:51:11 437.568
NOAA 15 06 May 19:49:57 19:55:11 73° 257° (WSW) 20:00:25 137.62
YUBILEINY 06 May 19:56:19 20:05:04 70° 273° (W) 20:13:44 435.215
DOVE 4 06 May 20:00:05 20:02:24 13° 77° (ENE) 20:04:45 437.250
Cubesat XI-IV 06 May 20:06:25 20:11:47 79° 257° (WSW) 20:17:07 437.490
CUBESAT XI-V 06 May 20:06:30 20:09:29 17° 282° (WNW) 20:12:29 437.345
NOAA 18 06 May 20:07:37 20:13:02 55° 257° (WSW) 20:18:25 137.9125
JUGNU 06 May 20:11:33 20:12:22 10° 5° (N) 20:13:11 437.505
Cosmos 2491 06 May 20:14:21 20:22:32 46° 267° (W) 20:30:45 435.465 / 435.565
LilacSat-2 06 May 20:21:31 20:25:09 37° 259° (W) 20:28:44 437.200
GOMX 1 06 May 20:22:00 20:26:38 66° 78° (ENE) 20:31:35 467.674
HO-68 06 May 20:49:48 20:55:10 23° 75° (ENE) 21:00:31 435.675
RS-15 06 May 20:50:50 21:01:36 67° 110° (ESE) 21:12:44 29.354- 29.394
Cosmos 2504 06 May 20:52:42 21:00:20 66° 93° (E) 21:07:30 435.465 / 435.565
M-CUBED/EXP-1 PRIME 06 May 20:57:46 21:02:18 62° 255° (WSW) 21:06:57 437.505
CUTE-I 06 May 21:02:24 21:05:53 18° 257° (WSW) 21:09:22 437.470
CUTE 1.7 + AOD 2 06 May 21:09:47 21:13:02 21° 79° (ENE) 21:16:15 437.475
AUBIESAT-1 06 May 21:12:58 21:17:22 48° 255° (WSW) 21:21:50 437.475
BRITE-PL 06 May 21:13:39 21:14:05 10° 260° (W) 21:14:33 437.365/2234.400
PRISM 06 May 21:16:59 21:20:03 20° 102° (ESE) 21:23:07 437.425
STRAND 1 06 May 21:23:34 21:28:21 41° 283° (WNW) 21:33:10 437.568
COMPASS 1 06 May 21:26:04 21:28:32 15° 79° (ENE) 21:30:58 437.405
SEEDS 06 May 21:29:14 21:32:48 27° 79° (ENE) 21:36:20 437.485
DOVE 4 06 May 21:35:24 21:39:44 34° 259° (W) 21:44:17 437.250
CINEMA 3 06 May 21:48:03 21:52:58 86° 77° (ENE) 21:57:59 145.822/145.860
AAUSAT CUBESAT 2 06 May 21:51:41 21:55:13 28° 79° (E) 21:58:44 437.432
UWE-3 06 May 21:53:25 21:56:02 15° 79° (ENE) 21:58:39 435.000/436.395/437.385
JUGNU 06 May 21:58:20 22:02:18 18° 15° (NNE) 22:06:18 437.505
CUBEBUG 2 06 May 22:07:53 22:12:17 38° 79° (ENE) 22:16:41 437.445
CANX-2 06 May 22:12:48 22:16:40 34° 259° (WSW) 22:20:30 2200.000
ZACube-1 06 May 22:14:18 22:17:18 17° 79° (ENE) 22:20:15 437.345
DELFI C3 06 May 22:33:06 22:34:36 12° 79° (ENE) 22:36:05 145.870
HO-68 06 May 22:36:00 22:42:34 39° 255° (WSW) 22:49:05 435.675
AO-85 06 May 22:43:43 22:45:34 13° 66° (ENE) 22:47:22 145.980
CUTE 1.7 + AOD 2 06 May 22:46:17 22:48:37 14° 258° (WSW) 22:50:55 437.475
Oscar 11 06 May 22:46:55 22:51:10 58° 79° (E) 22:55:25 145.826/435.025
Cosmos 2504 06 May 22:52:16 22:53:09 10° 272° (W) 22:54:03 435.465 / 435.565
PRISM 06 May 22:52:38 22:55:06 15° 282° (WNW) 22:57:34 437.425
COMPASS 1 06 May 23:00:52 23:03:50 19° 258° (WSW) 23:06:48 437.405
FUNcube-1 06 May 23:04:11 23:08:47 82° 78° (ENE) 23:13:18 145.935
SRMSAT 06 May 23:06:15 23:08:49 13° 10° (N) 23:11:23 437.500
RS-15 06 May 23:06:44 23:13:44 19° 294° (WNW) 23:20:58 29.354- 29.394
SEEDS 06 May 23:07:08 23:08:13 11° 258° (WSW) 23:09:18 437.485
TIGRISAT 06 May 23:15:32 23:18:02 15° 102° (ESE) 23:20:33 435.000
UWE-3 06 May 23:28:18 23:32:14 27° 258° (WSW) 23:36:08 435.000/436.395/437.385
AAUSAT CUBESAT 2 06 May 23:30:07 23:30:26 10° 258° (WSW) 23:30:45 437.432
ANTELSAT 06 May 23:40:04 23:44:01 38° 102° (ESE) 23:48:01 437.575/2403.000
JUGNU 06 May 23:46:05 23:51:42 43° 20° (NNE) 23:57:22 437.505
CUBEBUG 2 06 May 23:47:33 23:48:36 11° 258° (WSW) 23:49:40 437.445
GONETS M04 06 May 23:49:15 23:53:47 15° 93° (E) 23:58:18
ZACube-1 06 May 23:49:45 23:53:18 22° 258° (WSW) 23:56:49 437.345
DELFI C3 07 May 00:06:08 00:09:13 22° 258° (WSW) 00:12:16 145.870
HUMSAT D 07 May 00:15:34 00:19:43 50° 258° (WSW) 00:23:49 437.325/437.525
DUCHIFAT 1 07 May 00:16:55 00:18:36 12° 102° (ESE) 00:20:18 145.980
QB50P2 07 May 00:22:03 00:25:00 19° 102° (ESE) 00:27:57 145.880/145.840
AO-85 07 May 00:22:46 00:25:45 20° 249° (WSW) 00:28:38 145.980
VELOX 1 07 May 00:23:10 00:25:19 13° 78° (ENE) 00:27:29 145.980
POLYITAN 1 07 May 00:24:14 00:27:12 19° 102° (ESE) 00:30:11 437.675
POPSAT HIP 1 07 May 00:25:39 00:28:39 19° 102° (ESE) 00:31:39 437.405
50 SAT 07 May 00:26:21 00:28:36 16° 79° (ENE) 00:30:49 437.505
QB50P1 07 May 00:28:14 00:31:27 21° 102° (ESE) 00:34:39 145.935-145.965
UNISAT 6 07 May 00:34:42 00:38:27 31° 282° (WNW) 00:42:16 437.425
AIST 1 07 May 00:45:35 00:49:48 60° 94° (E) 00:54:02
Cosmos 2499 07 May 00:48:36 00:53:35 20° 95° (E) 00:58:24 435.465 / 435.565
TIGRISAT 07 May 00:51:21 00:54:28 20° 282° (WNW) 00:57:37 435.000
AISAT 07 May 00:53:50 00:57:59 40° 78° (ENE) 01:02:09 437.250
SRMSAT 07 May 00:53:51 00:58:43 25° 17° (NNE) 01:03:35 437.500
NANOSAT C BR1 07 May 00:59:39 01:03:47 61° 102° (ESE) 01:07:54 145.865
CUBEBUG 1 07 May 01:18:17 01:22:38 87° 81° (E) 01:27:00 437.445
ESTCUBE 1 07 May 01:29:59 01:34:11 40° 258° (WSW) 01:38:22 437.505/2401.250
O/OREOS (USA 219) 07 May 01:33:38 01:36:34 17° 76° (ENE) 01:39:29 437.305
JUGNU 07 May 01:34:50 01:40:47 70° 202° (SSW) 01:46:48 437.505
UKube-1 07 May 01:37:28 01:41:46 74° 257° (WSW) 01:46:04 .
DX 1 07 May 01:39:07 01:43:21 53° 258° (WSW) 01:47:36 434.975-435.025
GONETS M04 07 May 01:41:30 01:50:13 63° 273° (W) 01:58:55
DUCHIFAT 1 07 May 01:50:39 01:54:02 24° 282° (WNW) 01:57:25 145.980
VELOX 1 07 May 01:57:52 02:01:31 26° 258° (WSW) 02:05:10 145.980
QB50P2 07 May 01:57:54 02:00:33 16° 282° (WNW) 02:03:12 145.880/145.840
SPROUT 07 May 01:59:11 02:03:31 85° 261° (W) 02:07:49 437.525
50 SAT 07 May 02:00:10 02:02:07 14° 258° (WSW) 02:04:04 437.505
POLYITAN 1 07 May 02:00:11 02:02:45 16° 282° (WNW) 02:05:20 437.675
POPSAT HIP 1 07 May 02:01:37 02:04:10 16° 282° (WNW) 02:06:43 437.405
QB50P1 07 May 02:04:44 02:06:57 14° 282° (WNW) 02:09:11 145.935-145.965
BUGSAT 1 07 May 02:14:16 02:17:44 27° 282° (WNW) 02:21:10 437.445
TISAT 1 07 May 02:17:29 02:21:19 33° 78° (ENE) 02:25:08 437.305
JAS-2 07 May 02:22:46 02:30:13 57° 102° (ESE) 02:37:01 435.910
Cosmos 2499 07 May 02:39:42 02:46:23 38° 273° (W) 02:52:50 435.465 / 435.565
SRMSAT 07 May 02:42:10 02:48:06 65° 21° (NNE) 02:54:03 437.500
SWISSCUBE 07 May 02:50:17 02:52:10 12° 77° (ENE) 02:54:04 437.505
Oscar 19 07 May 02:51:08 02:56:11 56° 102° (ESE) 03:01:14 437.125/150
PCSat 07 May 03:06:13 03:11:31 58° 250° (WSW) 03:16:48 145.827
DANDE 07 May 03:09:31 03:16:19 28° 85° (E) 03:23:00 436.750
O/OREOS (USA 219) 07 May 03:12:30 03:15:40 19° 255° (WSW) 03:18:51 437.305
BEESAT 07 May 03:20:42 03:24:48 29° 78° (ENE) 03:28:52 436.000
Gurwin Techsat 1B 07 May 03:20:52 03:25:47 40° 103° (ESE) 03:30:44 435.225
JUGNU 07 May 03:25:01 03:30:01 27° 198° (SSW) 03:35:02 437.505
CUSAT 1 07 May 03:29:00 03:37:06 84° 86° (E) 03:44:18 437.405
ISS 07 May 03:29:38 03:30:19 10° 126° (SE) 03:30:59 145.825
JAS-2 07 May 04:10:19 04:14:38 16° 286° (WNW) 04:18:50 435.910
ITUPSAT 1 07 May 04:18:08 04:22:44 48° 258° (WSW) 04:27:18 437.325
ITAMSAT 1 07 May 04:19:11 04:24:20 66° 103° (ESE) 04:29:31 435.822/435.867
SWISSCUBE 07 May 04:25:26 04:29:42 33° 258° (WSW) 04:33:57 437.505
SRMSAT 07 May 04:31:38 04:37:21 46° 201° (SSW) 04:43:03 437.500
BEESAT 3 07 May 04:38:22 04:41:33 24° 68° (ENE) 04:44:44 437.485
PHONESAT 2.4 07 May 04:42:53 04:44:02 12° 138° (SE) 04:45:12 2401.200-2431.200
MOZHAYETS 4 07 May 04:50:13 04:53:20 18° 78° (ENE) 04:56:26
DANDE 07 May 04:51:09 04:58:52 42° 266° (W) 05:06:26 436.750
BEESAT 2 07 May 04:54:37 04:57:32 20° 68° (ENE) 05:00:28 435.950
BEESAT 07 May 04:59:47 05:02:18 14° 257° (WSW) 05:04:48 436.000
Gurwin Techsat 1B 07 May 05:03:14 05:05:27 13° 283° (WNW) 05:07:42 435.225
ISS 07 May 05:03:56 05:06:34 22° 306° (NW) 05:09:11 145.825
JUGNU 07 May 05:16:56 05:19:43 13° 190° (S) 05:22:31 437.505
CUSAT 1 07 May 05:18:06 05:18:31 10° 268° (W) 05:18:57 437.405
AO-7 07 May 05:21:32 05:29:53 79° 106° (ESE) 05:38:16 29.400- 29.500
SO-50 07 May 05:31:20 05:35:49 40° 111° (ESE) 05:40:21 436.795
KKS-1 07 May 05:50:07 05:54:12 35° 258° (WSW) 05:58:17 437.445
HORYU 2 07 May 05:53:41 05:57:37 32° 102° (ESE) 06:01:35 437.375
STARS 07 May 05:54:08 05:58:34 73° 258° (WSW) 06:02:59 437.465
BEESAT 3 07 May 06:17:55 06:19:00 11° 248° (WSW) 06:20:05 437.485
PHONESAT 2.4 07 May 06:17:57 06:20:46 31° 317° (NW) 06:23:34 2401.200-2431.200
SRMSAT 07 May 06:22:43 06:26:53 19° 195° (SSW) 06:31:02 437.500
MOZHAYETS 4 07 May 06:26:48 06:30:14 21° 258° (WSW) 06:33:38
BEESAT 2 07 May 06:33:06 06:35:08 14° 248° (WSW) 06:37:09 435.950
YUBILEINY 07 May 06:34:49 06:41:58 29° 87° (E) 06:49:09 435.215
CUBESAT XI-V 07 May 06:46:25 06:50:44 41° 78° (ENE) 06:55:02 437.345
NOAA 15 07 May 06:49:12 06:53:02 20° 103° (ESE) 06:56:51 137.62
Cosmos 2491 07 May 06:51:34 06:59:50 45° 93° (E) 07:08:04 435.465 / 435.565
AIST 2 07 May 07:02:38 07:06:28 38° 68° (ENE) 07:10:19 435.215
Cubesat XI-IV 07 May 07:07:37 07:11:25 20° 103° (ESE) 07:15:14 437.490
NOAA 18 07 May 07:12:06 07:16:56 33° 103° (ESE) 07:21:48 137.9125
SO-50 07 May 07:14:52 07:16:06 11° 293° (WNW) 07:17:20 436.795
AO-7 07 May 07:19:39 07:22:10 12° 288° (WNW) 07:24:43 29.400- 29.500
HORYU 2 07 May 07:33:18 07:33:55 10° 282° (WNW) 07:34:32 437.375
BRITE-PL 07 May 07:57:59 08:03:24 85° 102° (ESE) 08:08:25 437.365/2234.400
CUTE-I 07 May 08:00:00 08:05:21 88° 105° (ESE) 08:10:43 437.470
SRMSAT 07 May 08:15:39 08:16:57 11° 186° (S) 08:18:16 437.500
LilacSat-2 07 May 08:16:04 08:19:39 44° 281° (W) 08:23:16 437.200
STRAND 1 07 May 08:17:45 08:22:10 30° 77° (ENE) 08:26:33 437.568
DOVE 4 07 May 08:20:07 08:23:36 22° 101° (E) 08:26:57 437.250
NOAA 15 07 May 08:28:12 08:32:31 26° 283° (WNW) 08:36:51 137.62
YUBILEINY 07 May 08:30:37 08:38:21 36° 267° (W) 08:46:11 435.215
RS-15 07 May 08:32:28 08:44:29 59° 69° (ENE) 08:56:04 29.354- 29.394
HO-68 07 May 08:41:56 08:46:40 19° 105° (ESE) 08:51:23 435.675
CANX-2 07 May 08:46:14 08:47:28 11° 102° (ESE) 08:48:42 2200.000
GOMX 1 07 May 08:46:20 08:51:12 58° 282° (WNW) 08:55:46 467.674
Cubesat XI-IV 07 May 08:46:48 08:51:12 27° 283° (WNW) 08:55:38 437.490
Cosmos 2491 07 May 08:49:51 08:56:15 23° 273° (W) 09:02:42 435.465 / 435.565
NOAA 18 07 May 08:53:57 08:57:19 17° 283° (WNW) 09:00:42 137.9125
JUGNU 07 May 08:57:10 09:00:03 14° 169° (S) 09:02:54 437.505
M-CUBED/EXP-1 PRIME 07 May 08:59:22 09:02:37 53° 286° (WNW) 09:05:48 437.505
Cosmos 2504 07 May 09:02:10 09:10:30 86° 87° (E) 09:19:20 435.465 / 435.565
AUBIESAT-1 07 May 09:13:56 09:17:06 39° 286° (WNW) 09:20:11 437.475
CUTE 1.7 + AOD 2 07 May 09:15:44 09:19:18 26° 102° (ESE) 09:22:54 437.475
PRISM 07 May 09:19:53 09:22:58 21° 78° (ENE) 09:26:03 437.425
COMPASS 1 07 May 09:29:49 09:32:42 18° 102° (ESE) 09:35:36 437.405
SEEDS 07 May 09:34:14 09:38:01 33° 102° (ESE) 09:41:50 437.485
AAUSAT CUBESAT 2 07 May 09:55:05 09:58:49 32° 102° (ESE) 10:02:35 437.432
STRAND 1 07 May 09:57:58 10:01:02 16° 257° (WSW) 10:04:08 437.568
DOVE 4 07 May 09:58:16 10:01:02 16° 283° (WNW) 10:03:44 437.250
UWE-3 07 May 10:04:16 10:07:04 18° 102° (ESE) 10:09:53 435.000/436.395/437.385
CINEMA 3 07 May 10:05:27 10:09:35 52° 281° (W) 10:13:37 145.822/145.860
SRMSAT 07 May 10:06:27 10:07:20 10° 175° (S) 10:08:14 437.500
CANX-2 07 May 10:19:24 10:23:02 28° 281° (W) 10:26:42 2200.000
CUBEBUG 2 07 May 10:20:36 10:24:36 52° 102° (ESE) 10:28:39 437.445
ZACube-1 07 May 10:23:52 10:26:58 20° 102° (ESE) 10:30:05 437.345
HO-68 07 May 10:27:16 10:34:01 46° 284° (WNW) 10:40:49 435.675
DELFI C3 07 May 10:32:02 10:33:33 12° 102° (ESE) 10:35:03 145.870
JUGNU 07 May 10:44:41 10:49:41 28° 162° (SSE) 10:54:41 437.505
RS-15 07 May 10:47:18 10:56:29 25° 249° (WSW) 11:05:32 29.354- 29.394
AO-85 07 May 10:53:10 10:57:42 32° 111° (ESE) 11:02:27 145.980
CUTE 1.7 + AOD 2 07 May 10:53:22 10:54:53 12° 281° (WNW) 10:56:25 437.475
Oscar 11 07 May 10:55:28 10:59:46 79° 103° (ESE) 11:04:07 145.826/435.025
PRISM 07 May 10:56:03 10:58:01 13° 258° (WSW) 11:00:00 437.425
COMPASS 1 07 May 11:05:16 11:08:00 17° 281° (WNW) 11:10:45 437.405
UNISAT 6 07 May 11:12:22 11:15:29 18° 78° (ENE) 11:18:34 437.425
FUNcube-1 07 May 11:14:00 11:18:06 72° 282° (WNW) 11:22:17 145.935
TIGRISAT 07 May 11:27:23 11:31:19 26° 78° (ENE) 11:35:11 435.000
UWE-3 07 May 11:40:42 11:43:17 16° 281° (WNW) 11:45:53 435.000/436.395/437.385
ANTELSAT 07 May 11:52:51 11:57:31 64° 79° (ENE) 12:02:07 437.575/2403.000
SRMSAT 07 May 11:53:32 11:57:28 18° 166° (SSE) 12:01:23 437.500
ZACube-1 07 May 12:00:48 12:03:00 14° 281° (WNW) 12:05:14 437.345
DELFI C3 07 May 12:04:56 12:08:08 23° 281° (WNW) 12:11:22 145.870
ESTCUBE 1 07 May 12:09:19 12:11:42 14° 102° (ESE) 12:14:04 437.505/2401.250
50 SAT 07 May 12:18:07 12:19:16 11° 102° (ESE) 12:20:26 437.505
GONETS M04 07 May 12:19:57 12:27:23 32° 87° (E) 12:34:46
HUMSAT D 07 May 12:20:31 12:24:22 41° 281° (WNW) 12:28:16 437.325/437.525
DUCHIFAT 1 07 May 12:21:43 12:24:13 15° 78° (ENE) 12:26:43 145.980
QB50P2 07 May 12:28:01 12:31:27 23° 78° (ENE) 12:34:51 145.880/145.840
POLYITAN 1 07 May 12:30:11 12:33:40 24° 78° (ENE) 12:37:08 437.675
POPSAT HIP 1 07 May 12:31:27 12:34:56 24° 78° (ENE) 12:38:23 437.405
JUGNU 07 May 12:32:58 12:38:51 75° 159° (SSE) 12:44:42 437.505
VELOX 1 07 May 12:33:47 12:36:58 20° 102° (ESE) 12:40:10 145.980
QB50P1 07 May 12:34:03 12:37:40 27° 78° (ENE) 12:41:17 145.935-145.965
AO-85 07 May 12:34:38 12:38:01 17° 293° (WNW) 12:41:29 145.980
BUGSAT 1 07 May 12:44:07 12:45:42 12° 78° (ENE) 12:47:18 437.445
UNISAT 6 07 May 12:48:14 12:51:55 23° 258° (WSW) 12:55:36 437.425
AIST 1 07 May 12:52:04 12:56:26 88° 87° (E) 13:00:48
Cosmos 2499 07 May 12:55:14 13:02:28 31° 88° (E) 13:09:56 435.465 / 435.565
TIGRISAT 07 May 13:04:59 13:07:42 15° 258° (WSW) 13:10:24 435.000
AISAT 07 May 13:05:23 13:09:44 60° 102° (ESE) 13:14:06 437.250
NANOSAT C BR1 07 May 13:05:25 13:09:40 77° 80° (E) 13:13:56 145.865
CUBEBUG 1 07 May 13:28:25 13:32:47 67° 281° (W) 13:37:07 437.445
SRMSAT 07 May 13:41:27 13:47:01 42° 160° (SSE) 13:52:36 437.500
O/OREOS (USA 219) 07 May 13:43:33 13:47:35 30° 104° (ESE) 13:51:36 437.305
ESTCUBE 1 07 May 13:44:27 13:48:14 26° 282° (WNW) 13:52:01 437.505/2401.250
UKube-1 07 May 13:46:04 13:50:17 55° 282° (WNW) 13:54:31 .
DX 1 07 May 13:48:56 13:52:58 38° 282° (WNW) 13:57:03 434.975-435.025
50 SAT 07 May 13:50:04 13:52:47 20° 281° (WNW) 13:55:32 437.505
DUCHIFAT 1 07 May 13:56:26 13:59:39 21° 258° (WSW) 14:02:51 145.980
JAS-2 07 May 13:56:47 14:01:08 24° 75° (ENE) 14:05:49 435.910
PCSat 07 May 13:59:59 14:04:35 28° 109° (ESE) 14:09:10 145.827
QB50P2 07 May 14:04:48 14:06:59 14° 258° (WSW) 14:09:09 145.880/145.840
SPROUT 07 May 14:06:45 14:10:57 65° 282° (WNW) 14:15:10 437.525
POLYITAN 1 07 May 14:07:06 14:09:12 13° 258° (WSW) 14:11:18 437.675
POPSAT HIP 1 07 May 14:08:22 14:10:26 13° 258° (WSW) 14:12:31 437.405
VELOX 1 07 May 14:10:10 14:13:10 18° 282° (WNW) 14:16:11 145.980
QB50P1 07 May 14:11:35 14:13:10 12° 258° (WSW) 14:14:46 145.935-145.965
BUGSAT 1 07 May 14:17:19 14:20:48 26° 258° (WSW) 14:24:19 437.445
